• Join FlightAware (Why Join?)
  • Login
  • US Flag GB Flag 
15:56 EDT


 

Airport Tracker/Info


-or-


 

Live Flight TrackerFlight Track Log ✈ DAL268 ✈ 23-May-2013 ✈ KATL - KJFK

Flight Track Log - Related Links

Times and Time Zones

All times are in EDT time to prevent confusion due to time zone crossing. See the DAL268 flight status page for this flight to view local times or setup timezone preferences in your user account.

Time Position Orientation Groundspeed Altitude Reporting Facility
EDT Latitude Longitude Course Direction KTS MPH feet Rate Location/Type
18:42 33.6286 -84.4953 64° Northeast 442 509 2,900  Level Atlanta Center
18:43 33.6167 -84.5167 236° Southwest 208 239 3,400 1,680 Climbing Atlanta TRACON
18:44 33.5833 -84.5833 239° Southwest 270 311 5,200 2,040 Climbing Atlanta TRACON
18:45 33.7104 -83.9956 101° East  Level FlightAware Approximate
18:45 33.5000 -84.5833 180° South 286 329 7,500  Level Atlanta TRACON
18:46 33.6868 -83.8534 101° East  Level FlightAware Approximate
18:46 33.4492 -84.4572 116° Southeast 292 336 10,300  Level Atlanta Center
18:47 33.6630 -83.7113 101° East  Level FlightAware Approximate
18:47 33.4578 -84.3400 85° East 328 377 11,300  Level Atlanta Center
18:48 33.6740 -83.5746 64° Northeast  Level FlightAware Approximate
18:48 33.4914 -84.2181 72° East 385 443 13,100  Level Atlanta Center
18:49 33.5292 -84.0861 71° East 396 456 14,500 1,560 Climbing Atlanta Center
18:50 33.5689 -83.9492 71° East 422 486 16,300 1,740 Climbing Atlanta Center
18:51 33.6125 -83.8069 70° East 444 511 18,000 1,560 Climbing Atlanta Center
18:52 33.6539 -83.6644 71° East 449 517 19,500 1,500 Climbing Atlanta Center
18:53 33.7075 -83.5194 66° East 454 522 21,000 1,320 Climbing Atlanta Center
18:54 33.7653 -83.3767 64° Northeast 464 534 22,200 1,200 Climbing Atlanta Center
18:55 33.8292 -83.2186 64° Northeast 464 534 23,400 1,080 Climbing Atlanta Center
18:56 33.8906 -83.0703 63° Northeast 474 545 24,400 1,200 Climbing Atlanta Center
18:57 33.9478 -82.9194 65° Northeast 483 556 25,800 1,200 Climbing Atlanta Center
18:58 34.0089 -82.7708 64° Northeast 491 565 26,900 1,140 Climbing Atlanta Center
18:59 34.0678 -82.6219 64° Northeast 485 558 28,100 900 Climbing Atlanta Center
19:00 34.1267 -82.4753 64° Northeast 485 558 28,800 900 Climbing Atlanta Center
19:01 34.1769 -82.3439 65° Northeast 485 558 30,000 1,080 Climbing Atlanta Center
19:02 34.2333 -82.1994 65° Northeast 485 558 31,000 480 Climbing Atlanta Center
19:03 34.2958 -82.0600 61° Northeast 480 552 31,000  Level Atlanta Center
19:04 34.3583 -81.9250 61° Northeast 470 541 31,000  Level Atlanta Center
19:05 34.4036 -81.7781 69° East 456 525 31,000  Level Atlanta Center
19:06 34.4489 -81.6306 70° East 456 525 31,000  Level Atlanta Center
19:07 34.4939 -81.4806 70° East 461 531 31,000  Level Atlanta Center
19:08 34.5367 -81.3306 71° East 466 536 31,000  Level Atlanta Center
19:09 34.5856 -81.1853 68° East 471 542 31,000  Level Atlanta Center
19:10 34.6361 -81.0319 55° Northeast 477 549 31,000  Level Atlanta Center
19:11 34.6567 -81.0639 55° Northeast  Level FlightAware Approximate
19:11 34.7117 -80.8803 59° Northeast 467 537 31,000  Level Atlanta Center
19:12 34.7872 -80.7458 56° Northeast 485 558 31,000  Level Atlanta Center
19:13 34.8650 -80.6086 55° Northeast 495 570 31,000  Level Atlanta Center
19:14 34.9403 -80.4736 56° Northeast 495 570 31,000  Level Atlanta Center
19:16 34.9758 -80.3266 74° East  Level FlightAware Approximate
19:17 35.1644 -80.0739 65° Northeast 504 580 31,000  Level Washington Center
19:18 35.2336 -79.9531 55° Northeast 490 564 31,000  Level Washington Center
19:19 35.3117 -79.8147 55° Northeast 490 564 31,000  Level Washington Center
19:20 35.3853 -79.6786 56° Northeast 485 558 31,000  Level Washington Center
19:21 35.4608 -79.5394 56° Northeast 485 558 31,000  Level Washington Center
19:22 35.5431 -79.3878 56° Northeast 485 558 31,000  Level Washington Center
19:23 35.3044 -79.3986 65° Northeast  Level FlightAware Approximate
19:23 35.5889 -79.2497 68° East 485 558 31,000  Level Washington Center
19:24 35.6292 -79.0956 72° East 480 552 31,000  Level Washington Center
19:25 35.6711 -78.9414 71° East 475 547 31,000  Level Washington Center
19:26 35.7133 -78.7692 73° East 475 547 31,000  Level Washington Center
19:27 35.7528 -78.6197 72° East 475 547 31,000  Level Washington Center
19:28 35.7897 -78.4650 74° East 470 541 31,000  Level Washington Center
19:29 35.8289 -78.3128 72° East 470 541 31,000  Level Washington Center
19:30 35.8656 -78.1603 73° East 470 541 31,000  Level Washington Center
19:31 35.9022 -78.0100 73° East 464 534 31,000  Level Washington Center
19:32 35.9386 -77.8597 73° East 453 521 31,000  Level Washington Center
19:33 35.9808 -77.7097 71° East 453 521 31,000  Level Washington Center
19:34 36.0542 -77.5756 56° Northeast 458 527 31,000  Level Washington Center
19:35 36.1397 -77.4439 51° Northeast 470 541 31,000  Level Washington Center
19:36 36.2081 -77.3322 53° Northeast 470 541 31,000  Level Washington Center
19:37 36.2850 -77.2000 54° Northeast 470 541 31,000  Level Washington Center
19:38 36.3744 -77.0572 52° Northeast 470 541 31,000  Level Washington Center
19:39 36.4447 -76.9422 53° Northeast 475 547 31,000  Level Washington Center
19:40 36.5339 -76.7967 53° Northeast 475 547 31,000 -60 Level Washington Center
19:41 36.6122 -76.6658 53° Northeast 475 547 30,900 -60 Descending Washington Center
19:42 36.6928 -76.5347 53° Northeast 470 541 30,900  Level Washington Center
19:43 36.7272 -76.3772 75° East 470 541 31,000  Climbing Washington Center
19:44 36.7594 -76.2142 76° East 465 535 31,000  Level Washington Center
19:45 36.8289 -76.0772 58° Northeast 465 535 31,100 240 Climbing Washington Center
19:46 36.9503 -75.9972 28° Northeast 452 520 31,500 300 Climbing Washington Center
19:47 37.0714 -75.9433 20° North 472 543 31,700 300 Climbing Washington Center
19:48 37.2008 -75.8814 21° North 478 550 32,100 540 Climbing Washington Center
19:49 37.3325 -75.8192 21° North 491 565 32,800 420 Climbing Washington Center
19:50 37.4619 -75.7567 21° North 491 565 33,000 60 Climbing Washington Center
19:51 37.5933 -75.6967 20° North 496 571 33,000  Level Washington Center
19:52 37.7247 -75.6339 21° North 496 571 33,000  Level Washington Center
19:53 37.8583 -75.5681 21° North 501 577 33,000 -60 Level Washington Center
19:54 37.9917 -75.5047 21° North 506 582 32,900  Descending Washington Center
19:55 38.1189 -75.4308 25° Northeast 506 582 33,000  Climbing Washington Center
19:56 38.2439 -75.3539 26° Northeast 506 582 33,000  Level Washington Center
19:57 38.3708 -75.2686 28° Northeast 506 582 33,000  Level Washington Center
19:58 38.4978 -75.1858 27° Northeast 506 582 33,000  Level Washington Center
19:59 38.6244 -75.1053 26° Northeast 506 582 33,000  Level Washington Center
20:00 38.7533 -75.0219 27° Northeast 506 582 33,000  Level Washington Center
20:01 38.8844 -74.9408 26° Northeast 511 588 33,000 -960 Level Washington Center
20:02 39.0069 -74.8569 28° Northeast 506 582 31,100 -2,520 Descending Washington Center
20:03 39.1292 -74.7675 30° Northeast 506 582 27,900 -2,700 Descending Washington Center
20:04 39.2347 -74.6539 40° Northeast 506 582 25,800 -2,280 Descending Washington Center
20:07 39.4831 -74.3778 41° Northeast 463 533 20,300 -1,980 Descending New York Center
20:08 39.5758 -74.2775 40° Northeast 435 501 19,000 -1,140 Descending New York Center
20:09 39.6661 -74.1794 40° Northeast 416 479 18,000 -1,620 Descending New York Center
20:10 39.7439 -74.0917 41° Northeast 416 479 15,800 -1,980 Descending New York Center
20:11 39.8275 -74.0036 39° Northeast 409 471 14,200 -1,500 Descending New York Center
20:12 39.9275 -73.9272 30° Northeast 381 438 12,800 -720 Descending New York Center
20:13 40.0081 -73.8767 26° Northeast 339 390 12,800 -660 Level New York Center
20:14 40.0811 -73.8717 North 278 320 11,500 -960 Descending New York Center
20:15 40.1500 -73.8719 360° North 272 313 11,000 -360 Descending New York Center
20:15 40.2000 -73.8667 North 273 314 11,000 -600 Level New York TRACON
20:16 40.2667 -73.8167 30° Northeast 278 320 10,000 -1,320 Descending New York TRACON
20:17 40.2667 -73.7333 90° East 262 302 8,600 -1,560 Descending New York TRACON
20:18 40.2833 -73.6333 78° East 270 311 7,100 -1,140 Descending New York TRACON
20:19 40.3189 -73.6211 15° North 243 280 7,000 -120 Descending New York Center
20:20 40.3806 -73.5747 30° Northeast 248 285 7,000  Level New York Center
20:20 40.4333 -73.5667 North 265 305 7,000  Level New York TRACON
20:21 40.5000 -73.5667 360° North 257 296 7,000 -60 Level New York TRACON
20:22 40.5500 -73.5333 27° Northeast 266 306 6,900 -900 Descending New York TRACON
20:23 40.5833 -73.4500 62° Northeast 266 306 5,400 -1,140 Descending New York TRACON
20:24 40.6333 -73.4000 37° Northeast 264 304 4,800 -720 Descending New York TRACON
20:25 40.7000 -73.3667 21° North 267 307 4,000 -960 Descending New York TRACON
20:26 40.7833 -73.3500 North 257 296 3,000 -540 Descending New York TRACON
20:27 40.8333 -73.3833 333° Northwest 254 292 3,000  Level New York TRACON
20:28 40.8833 -73.4500 315° West 222 255 3,000 -360 Level New York TRACON
20:29 40.9000 -73.5000 294° West 176 203 2,400 -540 Descending New York TRACON
20:30 40.8833 -73.5500 246° West 157 181 2,000 -240 Descending New York TRACON
20:31 40.8500 -73.5833 217° Southwest 151 174 2,000  Level New York TRACON
20:32 40.8167 -73.6167 217° Southwest 152 175 2,000  Level New York TRACON
20:33 40.7833 -73.6500 217° Southwest 157 181 2,000  Level New York TRACON
20:34 40.7500 -73.6833 217° Southwest 155 178 2,000  Level New York TRACON